Location: Ambrosina
(19.9365°S, 43.9833°W)
Time: 09:47:52
(UTC+00:00)

NOSS 3-3 (C) - Pass Details

Date: 11 May 2021
Orbit: 806 x 1406 km, 63.4° (Epoch: 14 June)

Event Time Altitude Azimuth Distance (km) Brightness Sun altitude
Rises 20:57:28 0° 205° (SSW) 3,561 7.1 -7.2°
Reaches altitude 10° 21:00:05 10° 204° (SSW) 2,548 6.3 -7.8°
Maximum altitude 21:05:54 85° 116° (ESE) 836 3.6 -9.1°
Drops below altitude 10° 21:11:18 10° 27° (NNE) 2,377 5.9 -10.4°
Sets 21:13:40 0° 26° (NNE) 3,306 6.7 -10.9°
